User: anonymous   Login
Location: Hepcat Sky Observatory
(29.9800°N, 95.6500°W)
Time: 01:06:31
(UTC-05:00)
Language:

Cosmos 2151 Rocket - Orbit

View from above orbital plane
View from above orbital plane
View from above satellite
View from above satellite

Ground track
Ground track

The orbit data is extracted from the following two-line orbital elements,

1 21423U 91042B   17081.90907510 +.00000057 +00000-0 +45157-5 0  9995
2 21423 082.4947 042.0372 0017870 168.1832 191.9805 14.79681982368788
Epoch (UTC): 22 March 2017 21:49:04
Eccentricity: 0.0017870
inclination: 82.4947°
perigee height: 618 km
apogee height: 643 km
right ascension of ascending node: 42.0372°
argument of perigee: 168.1832°
revolutions per day: 14.79681982
mean anomaly at epoch: 191.9805°
orbit number at epoch: 36878

The dashed part of the orbit path shows where the satellite is in the earth's shadow,  

DLR